Regional Weather Roundup
Issued by NWS

Home | Current Version | Previous Version | Text Only | Print | Product List | Glossary On
Versions: 1 2 3 4 5 6 7 8 9 10 11 12 13 14 15 16 17 18 19 20 21 22 23 24 25 26 27 28
000
ASUS44 KBMX 290410
RWRAL

ALABAMA REGIONAL WEATHER ROUNDUP
NATIONAL WEATHER SERVICE BIRMINGHAM AL
1100 PM CDT WED JUN 28 2017

NOTE: "FAIR" INDICATES FEW OR NO CLOUDS BELOW 12,000 FEET
WITH NO SIGNIFICANT WEATHER AND/OR OBSTRUCTIONS TO VISIBILITY.

THE REMARK "TC" DENOTES TEMPERATURE IN DEGREES CELSIUS.

ALZ001>011-014-016>018-020-290500-
NORTH ALABAMA

CITY           SKY/WX    TMP DP  RH WIND       PRES   REMARKS
MUSCLE SHOALS  CLEAR     72  63  73 SE5       30.04S
HUNTSVILLE     CLEAR     75  68  78 SE7       30.06S
DECATUR        CLEAR     72  65  78 SE6       30.06S
HALEYVILLE     NOT AVBL
GADSDEN        CLEAR     76  66  71 SE6       30.09S
$$

ALZ012-013-022-023-030>036-040>044-290500-
WEST CENTRAL ALABAMA

CITY           SKY/WX    TMP DP  RH WIND       PRES   REMARKS
TUSCALOOSA     CLOUDY    76  71  85 S6        30.06R
$$

ALZ015-024>027-033>036-040>044-290500-
CENTRAL ALABAMA

CITY           SKY/WX    TMP DP  RH WIND       PRES   REMARKS
BIRMINGHAM     CLOUDY    79  65  62 SE3       30.10R
MONTGOMERY     MOCLDY    78  70  76 S3        30.09R
SHELBY CO ARPT PTCLDY    76  71  85 CALM      30.09R
MAXWELL AFB    NOT AVBL
GREENVILLE     FAIR      73  69  87 S5        30.09R
$$

ALZ019-021-028-029-037-038-045>048-290500-
EAST CENTRAL ALABAMA

CITY           SKY/WX    TMP DP  RH WIND       PRES   REMARKS
ANNISTON       PTCLDY    75  68  78 NE5       30.11R
ALEXANDER CITY PTCLDY    73  69  88 CALM      30.12R
AUBURN         CLOUDY    77  68  73 SE7       30.13R
$$

ALZ051>064-290500-
SOUTHWEST ALABAMA

CITY           SKY/WX    TMP DP  RH WIND       PRES   REMARKS
MOBILE         LGT RAIN  75  72  90 SE6       30.06R
BROOKLEY FIELD CLOUDY    77  75  93 SE10      30.06S
EVERGREEN      MOCLDY    73  71  93 CALM      30.08S
$$

ALZ049-050-065>069-290500-
SOUTHEAST ALABAMA

CITY           SKY/WX    TMP DP  RH WIND       PRES   REMARKS
DOTHAN         MOCLDY    76  75  97 VRB5      30.14R
OZARK          CLOUDY    75  73  92 CALM      30.10R
TROY           PTCLDY    73  73 100 CALM      30.10S
EUFAULA        FAIR      77  71  82 SE5       30.10R
$$




USA.gov is the U.S. government's official web portal to all federal, state and local government web resources and services.